Regional Weather Roundup
Issued by NWS

Home | Current Version | Previous Version | Text Only | Print | Product List | Glossary On
Versions: 1 2 3 4 5 6 7 8 9 10 11 12 13 14 15 16 17 18 19 20 21 22 23 24 25 26 27
000
ASUS45 KBOU 161307
RWRCO

WEATHER ROUNDUP FOR COLORADO
NATIONAL WEATHER SERVICE DENVER/BOULDER CO
700 AM MDT WED AUG 16 2017

NOTE: "FAIR" INDICATES FEW OR NO CLOUDS BELOW 12000 FEET WITH NO
SIGNIFICANT WEATHER AND/OR OBSTRUCTIONS TO VISIBILITY.

COZ001>005-013-030-031-161400-
...NORTHWEST COLORADO...

CITY           SKY/WX    TMP DP  RH WIND       PRES   REMARKS
CRAIG          FAIR      41  40  96 SW5       30.19R
HAYDEN         FAIR      45  44  97 E8        30.23R
MEEKER         FAIR      46  45  96 NE6       30.19R
RABBIT EARS PA FAIR      37  36  93 W7        30.37R
STEAMBOAT SPGS FAIR      43  42  97 CALM      30.21R
WALDEN         CLOUDY    41  37  87 SE3       30.27R
$$

COZ006>008-011-161400-
...WEST CENTRAL VALLEYS...

CITY           SKY/WX    TMP DP  RH WIND       PRES   REMARKS
GRAND JUNCTION FAIR      56  44  64 CALM      30.09R
MONTROSE       FAIR      54  38  54 S7        30.16R
EAGLE          FAIR      49  45  86 E7        30.22R
RIFLE          FAIR      54  43  66 SE6       30.15R
DELTA          NOT AVBL
NUCLA          FAIR      50  32  50 SE6       30.20R
$$

COZ017>023-064>068-161400-
...SOUTHWEST COLORADO...

CITY           SKY/WX    TMP DP  RH WIND       PRES   REMARKS
DURANGO        FAIR      47  33  58 N3        30.20R
CORTEZ         FAIR      43  36  76 NE7       30.17R
PAGOSA SPRINGS FAIR      44  32  62 CALM      30.27R
TELLURIDE      NOT AVBL
WOLF CREEK PAS FAIR      37  27  65 W3        30.52R
$$

COZ009-010-012-014-032>034-037-058>063-161400-
...CENTRAL COLORADO...

CITY           SKY/WX    TMP DP  RH WIND       PRES   REMARKS
ASPEN          FAIR      46  38  73 SW5       30.24R
BUENA VISTA    FAIR      53  36  52 NW8       30.25R
COPPER MTN     NOT AVBL
BERTHOUD PASS  CLOUDY    32  27  80 NW16      30.44R HAZE    WCI  21
COTTONWOOD PAS MOCLDY    50  30  46 W7        30.34R
GUNNISON       FAIR      47  40  76 CALM      30.27R
KREMMLING      FAIR      46  43  87 CALM      30.24S
LEADVILLE      FAIR      40  35  83 NE5       30.33R
SALIDA         FAIR      55  37  49 W5        30.30R
SUNLIGHT       FAIR      41  32  70 W6        30.43R
WILKERSON PASS FAIR      41  32  70 NW9       30.42S
$$

COZ069>075-161400-
...SAN LUIS VALLEY/SANGRE DE CRISTO MOUNTAINS...

CITY           SKY/WX    TMP DP  RH WIND       PRES   REMARKS
ALAMOSA        FAIR      44  36  73 CALM      30.23R
DEL NORTE      FAIR      48  32  53 SW12      30.26R
LA VETA PASS   NOT AVBL
SAGUACHE       FAIR      45  34  65 NW8       30.26R
$$

COZ035-036-038>040-161400-
...NORTHERN COLORADO FRONT RANGE...

CITY           SKY/WX    TMP DP  RH WIND       PRES   REMARKS
DENVER INTL AP MOCLDY    58  54  86 NE5       30.10R
DMNS CITY PARK   N/A     58  55  89 E8        30.11R
AURORA         MOCLDY    56  52  87 E7        30.11R
FRONT RANGE AP MOCLDY    59  55  88 E8        30.12R
ERIE MUNI ARPT FAIR      57  53  88 CALM      30.13R
BOULDER MUN AP FAIR      55  52  88 SW6       30.09R
CENTENNIAL     MOCLDY    56  51  84 SE6       30.12R
BROOMFIELD     FAIR      57  52  82 CALM      30.11R
FORT COLLINS   FAIR      58  56  93 CALM      30.09R
LONGMONT       FAIR      58  53  82 W3        30.10R
$$

COZ041-046-047-076>085-087-088-161400-
...PIKES PEAK/PALMER DIVIDE AND SOUTHERN FOOTHILLS...

CITY           SKY/WX    TMP DP  RH WIND       PRES   REMARKS
COLO. SPRINGS  MOCLDY    61  47  59 NE8       30.15R
A. F. ACADEMY  CLOUDY    54  47  79 NE6       30.14S
SCHRIEVER AFB  MOCLDY    54  47  76 SE9       30.16R
CHEYENNE MTN   MOCLDY    57  44  60 W7        30.13R
ELLICOTT       MOCLDY   N/A N/A N/A E6        30.14R
FALCON         CLOUDY    55  45  68 NW6       30.18S
FORT CARSON    MOCLDY    58  49  69 W6        30.12R
LIMON          FAIR      53  51  93 NW10      30.09R
MONUMENT HILL  MOCLDY    50  45  81 N3        30.19S
CANON CITY     CLOUDY    63  52  67 N3        30.12R
WALSENBURG     NOT AVBL
TRINIDAD       CLOUDY    55  49  80 W6        30.13R
$$

COZ042>045-048>051-090-091-161400-
...NORTHEAST COLORADO...

CITY           SKY/WX    TMP DP  RH WIND       PRES   REMARKS
GREELEY ARPT   MOCLDY    57  51  80 NW3       30.07R
AKRON          FAIR      56  53  90 W5        30.03R
BURLINGTON     FAIR      59  58  96 NW6       30.01R
WRAY           NOT AVBL
YUMA           FAIR      57  55  94 W7        29.99R
STERLING       MOCLDY    59  55  88 NW6       30.01R
HOLYOKE        FAIR      61  59  94 W7        29.97R
FORT MORGAN    FAIR      54  52  91 W3        30.05R
$$

COZ086-089-092>099-161400-
...SOUTHEAST COLORADO...

CITY           SKY/WX    TMP DP  RH WIND       PRES   REMARKS
PUEBLO         FAIR      60  52  74 SE5       30.08R
LA JUNTA       FAIR      62  57  83 W5        30.06R
LAMAR          MOCLDY    61  57  87 NW6       30.01R
SPRINGFIELD      N/A     59  58  96 N12       30.04R
$$




USA.gov is the U.S. government's official web portal to all federal, state and local government web resources and services.